Total_Precipitation_Accumulation
0.98 1.01 1.01 1.03 1.05 0.97 0.91 0.89 0.90 0.86 0.84 0.87 0.90 0.94 0.96 0.97 0.98 0.98 0.96 0.96 0.97 0.97 0.99 1.02 1.05 1.08 1.13 1.14 1.15 1.20 1.24 1.31 1.27 0.94 0.76 0.75 0.79 0.78 0.78 0.71 0.64 0.62 0.61
0.84 0.92 0.89 0.91 0.99 0.97 0.90 0.85 0.84 0.80 0.74 0.73 0.76 0.79 0.79 0.79 0.81 0.83 0.84 0.83 0.83 0.83 0.85 0.90 0.91 0.95 1.00 1.04 1.11 1.17 1.20 1.22 1.24 1.08 0.85 0.77 0.75 0.73 0.70 0.67 0.62 0.56 0.51
0.71 0.75 0.75 0.76 0.82 0.84 0.87 0.87 0.83 0.81 0.74 0.67 0.64 0.65 0.66 0.67 0.67 0.69 0.71 0.72 0.73 0.74 0.75 0.78 0.81 0.86 0.92 0.94 0.98 1.02 1.03 1.05 1.10 1.06 0.88 0.73 0.68 0.64 0.64 0.60 0.55 0.51 0.46
0.53 0.54 0.56 0.60 0.63 0.63 0.66 0.70 0.70 0.70 0.67 0.63 0.58 0.56 0.55 0.59 0.62 0.63 0.65 0.67 0.68 0.69 0.71 0.74 0.76 0.80 0.82 0.84 0.88 0.90 0.91 0.92 0.94 0.97 0.90 0.80 0.73 0.68 0.70 0.67 0.61 0.55 0.50
0.47 0.46 0.47 0.48 0.51 0.52 0.51 0.50 0.51 0.53 0.54 0.55 0.54 0.53 0.51 0.51 0.53 0.57 0.60 0.64 0.66 0.69 0.70 0.72 0.75 0.83 0.85 0.83 0.81 0.80 0.81 0.86 0.91 0.98 0.94 0.80 0.68 0.64 0.64 0.60 0.59 0.59 0.58
0.41 0.42 0.43 0.43 0.43 0.43 0.43 0.42 0.41 0.43 0.45 0.49 0.52 0.56 0.59 0.61 0.73 0.69 0.63 0.64 0.68 0.69 0.68 0.66 0.66 0.71 0.70 0.72 0.72 0.71 0.76 0.84 0.94 0.99 0.89 0.73 0.58 0.52 0.51 0.57 0.62 0.68 0.61
0.31 0.32 0.33 0.34 0.37 0.38 0.40 0.43 0.48 0.52 0.54 0.58 0.63 0.66 0.69 0.76 0.84 0.76 0.72 0.64 0.65 0.66 0.64 0.59 0.56 0.54 0.56 0.49 0.53 0.58 0.60 0.69 0.72 0.66 0.60 0.52 0.49 0.48 0.58 0.67 0.66 0.65 0.53
0.37 0.35 0.32 0.33 0.39 0.45 0.51 0.58 0.66 0.74 0.77 0.81 0.85 0.86 0.85 0.84 0.82 0.73 0.70 0.61 0.58 0.54 0.49 0.45 0.41 0.38 0.38 0.39 0.42 0.49 0.48 0.46 0.46 0.43 0.41 0.39 0.40 0.43 0.54 0.67 0.69 0.68 0.55
0.42 0.46 0.46 0.48 0.56 0.62 0.71 0.80 0.82 0.88 0.89 0.85 0.83 0.81 0.78 0.72 0.68 0.58 0.50 0.43 0.44 0.42 0.38 0.35 0.35 0.33 0.39 0.46 0.46 0.47 0.38 0.33 0.37 0.42 0.44 0.44 0.45 0.46 0.48 0.59 0.71 0.79 0.69
0.52 0.58 0.60 0.61 0.65 0.67 0.69 0.71 0.71 0.71 0.68 0.62 0.58 0.54 0.51 0.48 0.46 0.41 0.38 0.33 0.31 0.29 0.29 0.30 0.35 0.35 0.42 0.49 0.46 0.41 0.35 0.31 0.32 0.36 0.39 0.41 0.40 0.42 0.48 0.49 0.64 0.89 0.79
0.62 0.66 0.67 0.64 0.63 0.59 0.52 0.46 0.44 0.42 0.38 0.33 0.30 0.28 0.26 0.25 0.26 0.26 0.28 0.26 0.26 0.26 0.26 0.26 0.29 0.40 0.46 0.50 0.44 0.36 0.37 0.41 0.38 0.36 0.37 0.38 0.39 0.42 0.44 0.43 0.50 0.84 1.06
0.49 0.45 0.43 0.37 0.34 0.31 0.27 0.25 0.24 0.24 0.23 0.22 0.19 0.17 0.15 0.14 0.15 0.17 0.20 0.24 0.27 0.25 0.24 0.24 0.28 0.40 0.43 0.41 0.39 0.39 0.44 0.43 0.35 0.38 0.40 0.39 0.36 0.35 0.35 0.37 0.40 0.46 0.62
0.19 0.17 0.16 0.15 0.15 0.15 0.15 0.14 0.14 0.15 0.16 0.15 0.15 0.15 0.14 0.13 0.15 0.19 0.21 0.25 0.30 0.29 0.26 0.29 0.33 0.34 0.33 0.33 0.37 0.42 0.42 0.37 0.36 0.39 0.40 0.37 0.35 0.34 0.37 0.41 0.43 0.43 0.43
0.08 0.09 0.09 0.09 0.10 0.10 0.10 0.10 0.11 0.12 0.14 0.15 0.16 0.16 0.16 0.16 0.16 0.19 0.24 0.27 0.31 0.32 0.31 0.31 0.30 0.29 0.30 0.31 0.33 0.36 0.37 0.38 0.42 0.44 0.41 0.38 0.38 0.41 0.44 0.46 0.50 0.51 0.54
0.08 0.09 0.10 0.11 0.12 0.13 0.13 0.13 0.15 0.16 0.19 0.21 0.21 0.21 0.22 0.22 0.21 0.29 0.34 0.34 0.36 0.39 0.40 0.35 0.32 0.31 0.31 0.30 0.30 0.32 0.34 0.38 0.43 0.43 0.47 0.48 0.47 0.47 0.45 0.45 0.53 0.58 0.62
0.10 0.10 0.11 0.12 0.13 0.14 0.15 0.15 0.18 0.19 0.21 0.23 0.23 0.24 0.23 0.25 0.29 0.35 0.37 0.39 0.42 0.49 0.52 0.41 0.33 0.31 0.32 0.31 0.32 0.34 0.37 0.41 0.45 0.50 0.54 0.58 0.60 0.58 0.54 0.48 0.51 0.60 0.61
0.12 0.14 0.15 0.16 0.16 0.17 0.18 0.19 0.20 0.23 0.26 0.26 0.25 0.25 0.26 0.28 0.32 0.34 0.37 0.39 0.42 0.50 0.49 0.37 0.29 0.27 0.28 0.32 0.36 0.40 0.41 0.42 0.50 0.59 0.65 0.68 0.71 0.68 0.64 0.60 0.56 0.58 0.56
0.14 0.15 0.17 0.16 0.18 0.20 0.21 0.21 0.22 0.23 0.23 0.22 0.24 0.29 0.30 0.32 0.35 0.36 0.41 0.47 0.44 0.41 0.35 0.30 0.28 0.29 0.32 0.37 0.41 0.44 0.47 0.49 0.54 0.59 0.64 0.70 0.78 0.81 0.74 0.66 0.62 0.65 0.66
0.13 0.15 0.16 0.17 0.19 0.21 0.22 0.24 0.24 0.24 0.24 0.23 0.24 0.28 0.34 0.39 0.40 0.40 0.43 0.42 0.36 0.29 0.26 0.27 0.30 0.35 0.40 0.44 0.47 0.50 0.55 0.58 0.57 0.62 0.65 0.70 0.79 0.89 0.80 0.68 0.68 0.66 0.72
0.13 0.19 0.22 0.21 0.21 0.22 0.23 0.25 0.25 0.25 0.25 0.24 0.24 0.26 0.36 0.46 0.42 0.36 0.35 0.34 0.31 0.29 0.28 0.32 0.36 0.42 0.50 0.55 0.57 0.59 0.60 0.57 0.59 0.64 0.65 0.69 0.75 0.86 0.87 0.78 0.76 0.77 0.72
0.16 0.19 0.25 0.23 0.20 0.21 0.24 0.26 0.28 0.29 0.28 0.26 0.23 0.27 0.43 0.48 0.41 0.34 0.33 0.35 0.37 0.36 0.36 0.40 0.44 0.49 0.56 0.61 0.63 0.63 0.61 0.57 0.57 0.66 0.71 0.72 0.76 0.81 0.78 0.82 0.82 0.83 0.83
0.17 0.19 0.20 0.21 0.22 0.26 0.30 0.31 0.32 0.32 0.30 0.29 0.26 0.29 0.41 0.41 0.33 0.32 0.32 0.33 0.35 0.39 0.43 0.50 0.52 0.51 0.59 0.70 0.76 0.78 0.68 0.57 0.56 0.67 0.75 0.75 0.78 0.81 0.85 0.90 0.89 0.89 0.85
0.20 0.22 0.23 0.24 0.26 0.31 0.35 0.32 0.32 0.33 0.32 0.30 0.30 0.31 0.34 0.35 0.31 0.30 0.31 0.32 0.35 0.38 0.42 0.49 0.54 0.50 0.51 0.62 0.75 0.94 0.97 0.77 0.68 0.83 1.06 1.06 0.97 0.96 0.97 0.94 0.85 0.85 0.77
0.21 0.23 0.25 0.27 0.30 0.33 0.34 0.32 0.31 0.32 0.32 0.32 0.32 0.32 0.33 0.34 0.33 0.32 0.33 0.35 0.37 0.38 0.41 0.47 0.52 0.51 0.53 0.61 0.68 0.75 0.84 0.95 1.20 1.38 1.47 1.51 1.25 1.02 0.95 0.89 0.81 0.79 0.76
0.23 0.25 0.29 0.32 0.34 0.35 0.35 0.34 0.33 0.33 0.33 0.33 0.33 0.33 0.32 0.33 0.33 0.33 0.34 0.36 0.38 0.39 0.38 0.43 0.49 0.52 0.53 0.56 0.62 0.66 0.71 0.92 1.25 1.46 1.43 1.33 1.13 0.95 0.92 0.88 0.81 0.78 0.76
0.28 0.30 0.32 0.33 0.34 0.35 0.35 0.35 0.33 0.33 0.33 0.32 0.32 0.33 0.33 0.34 0.33 0.32 0.33 0.35 0.37 0.36 0.36 0.38 0.42 0.48 0.51 0.51 0.49 0.56 0.72 0.84 0.87 0.92 1.15 1.25 1.11 0.92 0.90 0.94 0.85 0.81 0.78